Weather History for Columbia, MO

Change the Weather History Date:

Tuesday, November 27, 2012

  Actual Average Record
Temperature  
Mean Temperature 28 °F 39 °F  
Max Temperature 39 °F 48 °F 74 °F (1960)
Min Temperature 16 °F 30 °F 11 °F (1955)
Degree Days  
Heating Degree Days 37 26  
Month to date heating degree days 512 538  
Since 1 July heating degree days 909 903  
Cooling Degree Days 0 0  
Month to date cooling degree days 3 0  
Year to date cooling degree days 1896 1247  
Moisture  
Dew Point 15 °F    
Average Humidity 61    
Maximum Humidity 84    
Minimum Humidity 37    
Precipitation  
Precipitation 0.00 in 0.11 in 1.94 in (1990)
Month to date precipitation 0.99 2.93  
Year to date precipitation 29.14 39.86  
Snow  
Snow 0.00 in 0.00 in 3.50 in (1980)
Month to date snowfall 0.0 0.7  
Since 1 July snowfall 0.0 0.7  
Since 1 September snowfall 0.0 0.7  
Snow Depth 0.00 in    
Sea Level Pressure  
Sea Level Pressure 30.40 in    
Wind  
Wind Speed 5 mph (WSW)    
Max Wind Speed 9 mph    
Max Gust Speed 13 mph    
Visibility 10 miles    
Events      
T = Trace of Precipitation, MM = Missing Value Source: NWS Daily Summary

Daily Weather History Graph

Daily Weather History Graph

Search for Another Location

Airport:

Trip Planner

Search our weather history database for the weather conditions in past years. The results will help you decide how hot, cold, wet, or windy it might be!

Date:

Astronomy

Nov. 27, 2012 Rise Set
Actual Time 7:04 AM CST 4:48 PM CST
Civil Twilight 6:35 AM CST 5:17 PM CST
Nautical Twilight 6:02 AM CST 5:50 PM CST
Astronomical Twilight 5:30 AM CST 6:22 PM CST
Moon 4:20 PM CST (11/27) 6:10 AM CST (11/27)
Length of Visible Light 10h 42m
Length of Day
9h 43m
Waxing Gibbous, 99% of the Moon is Illuminated
Nov 27
Waxing Gibbous
Nov 28
Full
Dec 6
Last Quarter
Dec 13
New
Dec 19
First Quarter

Hourly Weather History & Observations

Time (CST) Temp. Windchill Dew Point Humidity Pressure Visibility Wind Dir Wind Speed Gust Speed Precip Events Conditions
12:54 AM 21.9 °F 15.7 °F 17.1 °F 82% 30.44 in 10.0 mi North 4.6 mph - N/A   Clear
1:54 AM 19.9 °F 12.1 °F 14.0 °F 78% 30.43 in 10.0 mi North 5.8 mph - N/A   Clear
2:54 AM 19.9 °F 11.1 °F 14.0 °F 78% 30.43 in 10.0 mi NNW 6.9 mph - N/A   Clear
3:54 AM 18.0 °F 8.7 °F 12.0 °F 78% 30.43 in 10.0 mi NNW 6.9 mph - N/A   Clear
4:54 AM 18.0 °F 8.7 °F 12.0 °F 78% 30.44 in 10.0 mi NNW 6.9 mph - N/A   Clear
5:54 AM 18.0 °F 12.7 °F 12.0 °F 78% 30.45 in 10.0 mi NNW 3.5 mph - N/A   Clear
6:54 AM 17.1 °F 10.0 °F 12.0 °F 81% 30.46 in 10.0 mi NNW 4.6 mph - N/A   Clear
7:54 AM 19.0 °F 12.3 °F 14.0 °F 81% 30.47 in 10.0 mi NNW 4.6 mph - N/A   Clear
8:54 AM 24.1 °F - 15.1 °F 69% 30.49 in 10.0 mi Calm Calm - N/A   Clear
9:54 AM 27.0 °F - 17.1 °F 66% 30.50 in 10.0 mi Calm Calm - N/A   Clear
10:54 AM 30.9 °F 27.5 °F 17.1 °F 57% 30.48 in 10.0 mi South 3.5 mph - N/A   Clear
11:54 AM 34.0 °F 29.8 °F 16.0 °F 48% 30.43 in 10.0 mi SSW 4.6 mph - N/A   Clear
12:54 PM 36.0 °F 31.1 °F 14.0 °F 41% 30.40 in 10.0 mi SSW 5.8 mph - N/A   Clear
1:54 PM 37.9 °F 32.7 °F 15.1 °F 39% 30.37 in 10.0 mi SW 6.9 mph - N/A   Clear
2:54 PM 39.0 °F 34.0 °F 16.0 °F 39% 30.35 in 10.0 mi SSW 6.9 mph - N/A   Clear
3:54 PM 37.9 °F 32.7 °F 17.1 °F 43% 30.35 in 10.0 mi SSW 6.9 mph - N/A   Clear
4:54 PM 32.0 °F 26.4 °F 17.1 °F 54% 30.34 in 10.0 mi South 5.8 mph - N/A   Clear
5:54 PM 34.0 °F 29.8 °F 15.1 °F 46% 30.33 in 10.0 mi South 4.6 mph - N/A   Clear
6:54 PM 32.0 °F 27.5 °F 15.1 °F 50% 30.33 in 10.0 mi South 4.6 mph - N/A   Clear
7:54 PM 32.0 °F 27.5 °F 15.1 °F 50% 30.34 in 10.0 mi SSW 4.6 mph - N/A   Clear
8:54 PM 32.0 °F - 16.0 °F 52% 30.35 in 10.0 mi Calm Calm - N/A   Clear
9:54 PM 32.0 °F 27.5 °F 15.1 °F 50% 30.36 in 10.0 mi SW 4.6 mph - N/A   Clear
10:54 PM 27.0 °F 19.5 °F 15.1 °F 61% 30.35 in 10.0 mi WSW 6.9 mph - N/A   Clear
11:54 PM 33.1 °F 28.7 °F 16.0 °F 50% 30.36 in 10.0 mi West 4.6 mph - N/A   Clear